Miscellaneous Local Product
Issued by NWS Hastings, NE

Home | Current Version | Previous Version | Graphics & Text | Print | Product List | Glossary On
Versions: 1 2 3 4 5 6 7 8 9 10 11 12 13 14 15 16 17 18 19 20 21 22 23 24 25 26 27 28 29 30 31 32 33 34 35 36 37 38 39 40 41 42 43 44 45 46 47 48 49 50
000
AXUS43 KGID 010602
MISGRI

GID CWA HOURLY WEATHER ROUNDUP
NATIONAL WEATHER SERVICE HASTINGS NE
100 AM CDT TUE SEP 01 2015

NOTE: "FAIR" INDICATES FEW OR NO CLOUDS BELOW 12,000 FEET WITH NO
SIGNIFICANT WEATHER AND/OR OBSTRUCTIONS TO VISIBILITY.

...SOUTH CENTRAL NEBRASKA...

CITY           SKY/WX    TMP DP  RH WIND       PRES   REMARKS
GRAND ISLAND   FAIR      69  64  84 SE6       29.92S
HASTINGS       FAIR      71  63  75 SE7       29.92S
KEARNEY        FAIR      75  57  53 S14       29.91S
ORD            PTCLDY    66  64  93 CALM      29.92R
YORK           FAIR      72  68  88 S9        29.92F
AURORA         FAIR      67  67  99 SE6       29.92S
LEXINGTON      PTCLDY    70  62  77 CALM      29.93R
HOLDREGE       FAIR      70  59  68 S8        29.92S
HEBRON         FAIR      74  64  70 S9        29.92S

...NEBRASKA PANHANDLE...

CITY           SKY/WX    TMP DP  RH WIND       PRES   REMARKS
CHADRON        PTCLDY    62  50  64 E3        29.93F
ALLIANCE       MOCLDY    65  50  58 SE6       30.00R
SCOTTSBLUFF    PTCLDY    62  56  80 N3        30.00F
SIDNEY         CLOUDY    63  54  72 S6        30.05F

...WESTERN AND NORTH CENTRAL NEBRASKA...

CITY           SKY/WX    TMP DP  RH WIND       PRES   REMARKS
VALENTINE      CLOUDY    63  59  87 E3        29.95S
AINSWORTH      MOCLDY    65  63  93 CALM      29.96R
ONEILL         PTCLDY    71  69  95 CALM      29.92F
BROKEN BOW     MOCLDY    73  66  78 SE6       29.94R
IMPERIAL       CLOUDY    70  60  70 NW13      29.99S
NORTH PLATTE   CLOUDY    74  64  71 NW6       29.96R
MCCOOK         MOCLDY    81  52  36 S13G20    29.91R

...EASTERN NEBRASKA...

CITY           SKY/WX    TMP DP  RH WIND       PRES   REMARKS
NORFOLK        FAIR      69  67  93 CALM      29.91S
SO SIOUX CITY  FAIR      68  64  87 E5        29.91S
TEKAMAH        FAIR      66  65  96 S3        29.91S FOG
COLUMBUS       FAIR      66  61  82 CALM      29.92S
ALBION         FAIR      68  66  92 CALM      29.92S FOG
OMAHA EPPLEY   FAIR      73  69  87 S7        29.93R
OFFUTT AFB     CLEAR     66  66 100 E6        29.93S
MILLARD        FAIR      73  69  89 SE3       29.93S
LINCOLN        FAIR      73  68  84 S8        29.93S
NEBRASKA CITY  FAIR      72  67  84 S8        29.95S
BEATRICE       FAIR      72  67  85 SE8       29.94S
FALLS CITY     FAIR      74  69  85 S6        29.95R

...NORTHERN KANSAS...

CITY           SKY/WX    TMP DP  RH WIND       PRES   REMARKS
GOODLAND       CLOUDY    66  62  87 NW13      30.01F THUNDER
HILL CITY      FAIR      77  55  46 S9        29.94R
NORTON         CLEAR     75  48  38 S10       29.92S
PHILLIPSBURG   FAIR      79  55  44 CALM      29.92S
SMITH CENTER   CLEAR     70  57  64 SE7       29.93R
HAYS           FAIR      77  54  44 S12G17    29.95S
RUSSELL        FAIR      75  56  51 S13       29.94R
CONCORDIA      FAIR      76  63  64 S20       29.93R
SALINA         FAIR      78  63  59 S12       29.95R
TOPEKA         FAIR      77  69  76 S8        29.97S



USA.gov is the U.S. government's official web portal to all federal, state and local government web resources and services.